Hourly Weather Kozly

Today, 22 October, Thursday

Time Temperature Precipitation Wind Pressure Humidity
00:00 +8°C° 0.2 mm 3 mps 742 mmHg 91%
01:00 +8°C° 0.2 mm 3 mps 742 mmHg 92%
02:00 +8°C° 0 mm 3 mps 742 mmHg 91%
03:00 +7°C° 0 mm 4 mps 742 mmHg 88%
04:00 +7°C° 0 mm 4 mps 741 mmHg 86%
05:00 +8°C° 0 mm 4 mps 741 mmHg 84%
06:00 +7°C° 0.1 mm 4 mps 741 mmHg 85%
07:00 +7°C° 0.1 mm 5 mps 741 mmHg 85%
08:00 +7°C° 0.1 mm 5 mps 740 mmHg 86%
09:00 +8°C° 0 mm 5 mps 740 mmHg 82%
10:00 +9°C° 0 mm 6 mps 740 mmHg 78%
11:00 +11°C° 0 mm 6 mps 740 mmHg 73%
12:00 +13°C° 0 mm 6 mps 740 mmHg 71%
13:00 +14°C° 0 mm 7 mps 741 mmHg 68%
14:00 +15°C° 0 mm 7 mps 741 mmHg 66%
15:00 +15°C° 0 mm 6 mps 741 mmHg 69%
16:00 +14°C° 0 mm 5 mps 741 mmHg 73%
17:00 +13°C° 0 mm 5 mps 740 mmHg 76%
18:00 +13°C° 0 mm 5 mps 741 mmHg 79%
19:00 +12°C° 0 mm 4 mps 741 mmHg 81%
20:00 +12°C° 0 mm 4 mps 742 mmHg 84%
21:00 +11°C° 0 mm 4 mps 742 mmHg 86%
22:00 +11°C° 0 mm 4 mps 742 mmHg 89%
23:00 +10°C° 0 mm 4 mps 742 mmHg 91%

Tomorrow, 23 October, Friday

Time Temperature Precipitation Wind Pressure Humidity
00:00 +10°C° 0 mm 3 mps 742 mmHg 92%
01:00 +10°C° 0 mm 3 mps 742 mmHg 93%
02:00 +10°C° 0 mm 3 mps 742 mmHg 93%
03:00 +10°C° 0 mm 3 mps 742 mmHg 94%
04:00 +10°C° 0 mm 3 mps 742 mmHg 94%
05:00 +10°C° 0 mm 3 mps 741 mmHg 94%
06:00 +10°C° 0 mm 4 mps 741 mmHg 93%
07:00 +10°C° 0 mm 4 mps 741 mmHg 92%
08:00 +10°C° 0 mm 4 mps 740 mmHg 90%
09:00 +10°C° 0 mm 5 mps 740 mmHg 85%
10:00 +12°C° 0 mm 5 mps 740 mmHg 81%
11:00 +14°C° 0 mm 6 mps 740 mmHg 76%
12:00 +14°C° 0.1 mm 5 mps 740 mmHg 76%
13:00 +14°C° 0.1 mm 5 mps 739 mmHg 76%
14:00 +14°C° 0.1 mm 5 mps 739 mmHg 76%
15:00 +14°C° 0 mm 4 mps 739 mmHg 79%
16:00 +13°C° 0 mm 4 mps 739 mmHg 82%
17:00 +13°C° 0 mm 3 mps 739 mmHg 84%
18:00 +12°C° 0 mm 3 mps 739 mmHg 87%
19:00 +11°C° 0 mm 3 mps 739 mmHg 90%
20:00 +11°C° 0 mm 3 mps 739 mmHg 93%
21:00 +10°C° 0 mm 3 mps 740 mmHg 93%
22:00 +10°C° 0 mm 2 mps 740 mmHg 94%
23:00 +10°C° 0 mm 2 mps 740 mmHg 94%

Day after tomorrow, 24 October, Saturday

Time Temperature Precipitation Wind Pressure Humidity
00:00 +9°C° 0 mm 2 mps 740 mmHg 94%
01:00 +10°C° 0 mm 1 mps 740 mmHg 94%
02:00 +10°C° 0 mm 1 mps 740 mmHg 94%
03:00 +10°C° 0 mm 1 mps 740 mmHg 94%
04:00 +10°C° 0 mm 1 mps 740 mmHg 94%
05:00 +9°C° 0 mm 0 mps 740 mmHg 93%
06:00 +9°C° 0 mm 0 mps 740 mmHg 93%
07:00 +10°C° 0 mm 1 mps 740 mmHg 93%
08:00 +11°C° 0 mm 1 mps 740 mmHg 92%
09:00 +11°C° 0.4 mm 1 mps 740 mmHg 94%
10:00 +11°C° 0.4 mm 1 mps 740 mmHg 95%
11:00 +11°C° 0.4 mm 1 mps 739 mmHg 96%
12:00 +11°C° 1.1 mm 1 mps 739 mmHg 97%
13:00 +11°C° 1.1 mm 1 mps 739 mmHg 97%
14:00 +11°C° 1.1 mm 1 mps 739 mmHg 98%
15:00 +11°C° 1.5 mm 1 mps 739 mmHg 97%
16:00 +10°C° 1.5 mm 2 mps 739 mmHg 97%
17:00 +10°C° 1.5 mm 2 mps 739 mmHg 97%
18:00 +9°C° 0.1 mm 2 mps 739 mmHg 96%
19:00 +9°C° 0.1 mm 1 mps 740 mmHg 96%
20:00 +8°C° 0.1 mm 0 mps 740 mmHg 95%
21:00 +9°C° 0 mm 1 mps 740 mmHg 95%
22:00 +8°C° 0 mm 2 mps 741 mmHg 95%
23:00 +8°C° 0 mm 3 mps 741 mmHg 95%

, 25 October, Sunday

Time Temperature Precipitation Wind Pressure Humidity
00:00 +8°C° 0 mm 3 mps 741 mmHg 95%
01:00 +8°C° 0 mm 3 mps 742 mmHg 96%
02:00 +8°C° 0 mm 3 mps 742 mmHg 96%
03:00 +7°C° 0 mm 3 mps 742 mmHg 96%
04:00 +7°C° 0 mm 3 mps 743 mmHg 96%
05:00 +7°C° 0 mm 3 mps 743 mmHg 96%
06:00 +7°C° 0 mm 2 mps 743 mmHg 95%
07:00 +8°C° 0 mm 2 mps 744 mmHg 94%
08:00 +8°C° 0 mm 2 mps 744 mmHg 93%
09:00 +9°C° 0 mm 2 mps 744 mmHg 88%
10:00 +9°C° 0 mm 2 mps 745 mmHg 84%
11:00 +10°C° 0 mm 2 mps 745 mmHg 80%
12:00 +12°C° 0 mm 2 mps 745 mmHg 76%
13:00 +12°C° 0 mm 2 mps 745 mmHg 73%
14:00 +13°C° 0 mm 2 mps 745 mmHg 70%
15:00 +12°C° 0 mm 2 mps 745 mmHg 75%
16:00 +11°C° 0 mm 1 mps 745 mmHg 80%
17:00 +10°C° 0 mm 1 mps 745 mmHg 84%
18:00 +8°C° 0 mm 2 mps 745 mmHg 87%
19:00 +8°C° 0 mm 2 mps 746 mmHg 89%
20:00 +7°C° 0 mm 2 mps 746 mmHg 91%
21:00 +7°C° 0 mm 2 mps 746 mmHg 92%
22:00 +7°C° 0 mm 2 mps 746 mmHg 93%
23:00 +6°C° 0 mm 2 mps 746 mmHg 94%

25 October, Sunday

Time Temperature Precipitation Wind Pressure Humidity
00:00 +8°C° 0 mm 3 mps 741 mmHg 95%
01:00 +8°C° 0 mm 3 mps 742 mmHg 96%
02:00 +8°C° 0 mm 3 mps 742 mmHg 96%
03:00 +7°C° 0 mm 3 mps 742 mmHg 96%
04:00 +7°C° 0 mm 3 mps 743 mmHg 96%
05:00 +7°C° 0 mm 3 mps 743 mmHg 96%
06:00 +7°C° 0 mm 2 mps 743 mmHg 95%
07:00 +8°C° 0 mm 2 mps 744 mmHg 94%
08:00 +8°C° 0 mm 2 mps 744 mmHg 93%
09:00 +9°C° 0 mm 2 mps 744 mmHg 88%
10:00 +9°C° 0 mm 2 mps 745 mmHg 84%
11:00 +10°C° 0 mm 2 mps 745 mmHg 80%
12:00 +12°C° 0 mm 2 mps 745 mmHg 76%
13:00 +12°C° 0 mm 2 mps 745 mmHg 73%
14:00 +13°C° 0 mm 2 mps 745 mmHg 70%
15:00 +12°C° 0 mm 2 mps 745 mmHg 75%
16:00 +11°C° 0 mm 1 mps 745 mmHg 80%
17:00 +10°C° 0 mm 1 mps 745 mmHg 84%
18:00 +8°C° 0 mm 2 mps 745 mmHg 87%
19:00 +8°C° 0 mm 2 mps 746 mmHg 89%
20:00 +7°C° 0 mm 2 mps 746 mmHg 91%
21:00 +7°C° 0 mm 2 mps 746 mmHg 92%
22:00 +7°C° 0 mm 2 mps 746 mmHg 93%
23:00 +6°C° 0 mm 2 mps 746 mmHg 94%

26 October, Monday

Time Temperature Precipitation Wind Pressure Humidity
00:00 +6°C° 0 mm 2 mps 746 mmHg 94%
01:00 +6°C° 0 mm 2 mps 746 mmHg 94%
02:00 +6°C° 0 mm 2 mps 746 mmHg 94%
03:00 +4°C° 0 mm 3 mps 746 mmHg 95%
04:00 +4°C° 0 mm 3 mps 746 mmHg 95%
05:00 +4°C° 0 mm 3 mps 746 mmHg 96%
06:00 +4°C° 0 mm 3 mps 746 mmHg 96%
07:00 +4°C° 0 mm 3 mps 746 mmHg 96%
08:00 +4°C° 0 mm 4 mps 746 mmHg 96%
09:00 +6°C° 0 mm 4 mps 746 mmHg 92%
10:00 +7°C° 0 mm 4 mps 746 mmHg 87%
11:00 +8°C° 0 mm 5 mps 746 mmHg 83%
12:00 +9°C° 0 mm 5 mps 746 mmHg 81%
13:00 +10°C° 0 mm 5 mps 746 mmHg 78%
14:00 +10°C° 0 mm 5 mps 745 mmHg 76%
15:00 +10°C° 0 mm 5 mps 745 mmHg 79%
16:00 +9°C° 0 mm 5 mps 745 mmHg 83%
17:00 +8°C° 0 mm 4 mps 744 mmHg 86%
18:00 +8°C° 0 mm 5 mps 744 mmHg 87%
19:00 +8°C° 0 mm 5 mps 744 mmHg 87%
20:00 +8°C° 0 mm 5 mps 744 mmHg 88%
21:00 +8°C° 0 mm 5 mps 744 mmHg 87%
22:00 +8°C° 0 mm 5 mps 744 mmHg 87%
23:00 +8°C° 0 mm 6 mps 744 mmHg 87%

27 October, Tuesday

Time Temperature Precipitation Wind Pressure Humidity
00:00 +8°C° 0.3 mm 6 mps 744 mmHg 89%
01:00 +8°C° 0.3 mm 6 mps 743 mmHg 92%
02:00 +8°C° 0.3 mm 6 mps 743 mmHg 94%
03:00 +9°C° 0.5 mm 6 mps 743 mmHg 94%
04:00 +9°C° 0.5 mm 6 mps 743 mmHg 93%
05:00 +9°C° 0.5 mm 6 mps 743 mmHg 93%
06:00 +9°C° 0 mm 6 mps 743 mmHg 92%
07:00 +9°C° 0 mm 6 mps 743 mmHg 91%
08:00 +9°C° 0 mm 6 mps 743 mmHg 90%
09:00 +10°C° 0 mm 5 mps 743 mmHg 87%
10:00 +10°C° 0 mm 5 mps 743 mmHg 85%
11:00 +12°C° 0 mm 5 mps 743 mmHg 82%
12:00 +13°C° 0 mm 5 mps 743 mmHg 81%
13:00 +13°C° 0 mm 5 mps 743 mmHg 80%
14:00 +14°C° 0 mm 5 mps 743 mmHg 79%
15:00 +13°C° 0 mm 4 mps 743 mmHg 81%
16:00 +13°C° 0 mm 4 mps 743 mmHg 84%
17:00 +13°C° 0 mm 4 mps 743 mmHg 86%
18:00 +12°C° 0 mm 4 mps 743 mmHg 87%
19:00 +12°C° 0 mm 4 mps 743 mmHg 88%
20:00 +12°C° 0 mm 4 mps 744 mmHg 89%
21:00 +12°C° 0 mm 3 mps 744 mmHg 91%
22:00 +11°C° 0 mm 3 mps 744 mmHg 92%
23:00 +10°C° 0 mm 3 mps 744 mmHg 94%
Show more